Home   Weather   32°03'N, 118°45'E   Past weeks
Flag for China

Past Weather in 32°03'N, 118°45'E, China — Yesterday and Last 2 Weeks

Now
79 °F

Passing clouds.


Feels Like: 82 °F
Forecast: 91 / 77 °F
Wind: 3 mph from Northwest

Location: Nanjing

Current Time: Jul 20, 2019 at 7:59:04 am

Latest Report: Jul 20, 2019 at 7:00 am


Visibility: N/A

Pressure: 29.62 "Hg

Humidity: 89%

Dew Point: 75 °F

Location of 32°03'N, 118°45'ELocation

Past Weather in 32°03'N, 118°45'E — Graph

°F

32°03'N, 118°45'E Temperature Yesterday

Maximum temperature yesterday: 86 °F (at 4:00 pm)
Minimum temperature yesterday: 79 °F (at 12:00 am)
Average temperature yesterday: 82 °F

High & Low Weather Summary for the Past Weeks

 TemperatureHumidityPressure
High91 °F (Jul 6, 2:00 pm)100% (Jul 7, 1:00 am)29.80 "Hg (Jul 7, 1:00 am)
Low68 °F (Jul 14, 5:00 am)49% (Jul 15, 1:00 pm)29.42 "Hg (Jul 6, 3:00 pm)
Average79 °F82%29.63 "Hg
* Reported Jul 5 6:00 am — Jul 20 6:00 am, 32°03'N, 118°45'E. Weather by CustomWeather, © 2019

Note: Actual official high and low records may vary slightly from our data, if they occured in-between our weather recording intervals... More about our weather records

Advertising

32°03'N, 118°45'E Weather History for the Previous 24 Hours

Scroll right to see more
 ConditionsComfort  
Time TempWeatherWind HumidityBarometerVisibility
6:00 am
Sat, Jul 20
77 °FSunny.1 mph94%29.62 "Hg10 mi
5:00 am77 °FPassing clouds.1 mph89%29.59 "HgN/A
4:00 am77 °FPassing clouds.1 mph94%29.59 "HgN/A
3:00 am77 °FPassing clouds.1 mph94%29.59 "HgN/A
2:00 am77 °FPassing clouds.1 mph94%29.59 "HgN/A
1:00 am79 °FPassing clouds.1 mph89%29.59 "HgN/A
12:00 am79 °FPassing clouds.1 mph94%29.59 "HgN/A
11:00 pm
Fri, Jul 19
81 °FPassing clouds.1 mph89%29.59 "HgN/A
10:00 pm81 °FPassing clouds.1 mph89%29.59 "HgN/A
9:00 pm81 °FPassing clouds.3 mph84%29.56 "HgN/A
8:00 pm82 °FPassing clouds.3 mph79%29.56 "HgN/A
7:00 pm84 °FScattered clouds.1 mph79%29.53 "HgN/A
6:00 pm86 °FScattered clouds.1 mph75%29.53 "HgN/A
5:00 pm86 °FPassing clouds.6 mph75%29.53 "HgN/A
4:00 pm86 °FPartly sunny.3 mph75%29.53 "HgN/A
3:00 pm84 °FPartly sunny.6 mph79%29.53 "HgN/A
2:00 pm82 °FLight rain. Mostly cloudy.6 mph84%29.53 "HgN/A
1:00 pm82 °FMore clouds than sun.3 mph84%29.56 "HgN/A
12:00 pm81 °FLight rain. More clouds than sun.10 mph89%29.56 "HgN/A
11:00 am84 °FMore clouds than sun.6 mph74%29.56 "HgN/A
10:00 am84 °FBroken clouds.6 mph79%29.56 "HgN/A
9:00 am82 °FBroken clouds.3 mph84%29.56 "HgN/A
8:00 am81 °FPartly sunny.3 mph89%29.56 "HgN/A
7:00 am79 °FOvercast.6 mph94%29.56 "HgN/A
Weather by CustomWeather, © 2019

See weather overview